| time (UTC) | temp F | wind direction | speed MPH | gust MPH | rain 1hr in | rain 24hr in | rain mn in | humidity % | barometer mb |
| 20260904065604 | 77 | 130 | 0.0 | 2.0 | 0.00 | 0.00 | 0.00 | 66 | 1020.9 |
| 20260904065104 | 76 | 137 | 2.0 | 2.0 | 0.00 | 0.00 | 0.00 | 67 | 1020.8 |
| 20260904064603 | 75 | 136 | 2.0 | 2.0 | 0.00 | 0.00 | 0.00 | 69 | 1020.8 |
| 20260904064104 | 73 | 136 | 1.0 | 2.0 | 0.00 | 0.00 | 0.00 | 71 | 1020.8 |
| 20260904063604 | 72 | 136 | 1.0 | 2.0 | 0.00 | 0.00 | 0.00 | 74 | 1020.7 |
| 20260904063103 | 71 | 144 | 0.0 | 2.0 | 0.00 | 0.00 | 0.00 | 76 | 1020.7 |
| 20260904062603 | 70 | 144 | 0.0 | 2.0 | 0.00 | 0.00 | 0.00 | 78 | 1020.7 |
| 20260904061604 | 68 | 144 | 0.0 | 2.0 | 0.00 | 0.00 | 0.00 | 79 | 1020.7 |
| 20260904061104 | 68 | 144 | 1.0 | 1.0 | 0.00 | 0.00 | 0.00 | 79 | 1020.7 |
| 20260904060605 | 68 | 144 | 1.0 | 0.0 | 0.00 | 0.00 | 0.00 | 80 | 1020.5 |
| 20260904060104 | 67 | 144 | 2.0 | 1.0 | 0.00 | 0.00 | 0.00 | 81 | 1020.5 |
| 20260904055604 | 67 | 144 | 2.0 | 2.0 | 0.00 | 0.00 | 0.00 | 81 | 1020.5 |
| 20260904055104 | 67 | 144 | 2.0 | 2.0 | 0.00 | 0.00 | 0.00 | 81 | 1020.3 |
| 20260904054104 | 66 | 144 | 2.0 | 2.0 | 0.00 | 0.00 | 0.00 | 81 | 1020.3 |
| 20260904053604 | 66 | 144 | 2.0 | 2.0 | 0.00 | 0.00 | 0.00 | 82 | 1020.3 |
| 20260904053104 | 65 | 144 | 2.0 | 2.0 | 0.00 | 0.00 | 0.00 | 82 | 1020.3 |
| 20260904052104 | 65 | 144 | 2.0 | 2.0 | 0.00 | 0.00 | 0.00 | 82 | 1020.2 |
| 20260904051604 | 65 | 144 | 2.0 | 3.0 | 0.00 | 0.00 | 0.00 | 82 | 1020.2 |
| 20260904051104 | 65 | 134 | 2.0 | 2.0 | 0.00 | 0.00 | 0.00 | 82 | 1020.2 |
| 20260904050604 | 65 | 134 | 2.0 | 2.0 | 0.00 | 0.00 | 0.00 | 82 | 1020.3 |
| 20260904050104 | 65 | 134 | 1.0 | 2.0 | 0.00 | 0.00 | 0.00 | 82 | 1020.3 |
| 20260904045604 | 65 | 134 | 0.0 | 2.0 | 0.00 | 0.00 | 0.00 | 82 | 1020.3 |
| 20260904045104 | 65 | 134 | 0.0 | 2.0 | 0.00 | 0.00 | 0.00 | 82 | 1020.4 |
| 20260904044105 | 65 | 134 | 1.0 | 2.0 | 0.00 | 0.00 | 0.00 | 83 | 1020.4 |
| 20260904043604 | 65 | 134 | 1.0 | 2.0 | 0.00 | 0.00 | 0.00 | 83 | 1020.3 |
| 20260904043104 | 65 | 134 | 0.0 | 2.0 | 0.00 | 0.00 | 0.00 | 83 | 1020.3 |
| 20260904042604 | 65 | 134 | 0.0 | 2.0 | 0.00 | 0.00 | 0.00 | 83 | 1020.3 |
| 20260904041604 | 65 | 134 | 0.0 | 0.0 | 0.00 | 0.00 | 0.00 | 83 | 1020.3 |
| 20260904041104 | 65 | 134 | 0.0 | 0.0 | 0.00 | 0.00 | 0.00 | 83 | 1020.3 |
| 20260904040103 | 65 | 134 | 0.0 | 2.0 | 0.00 | 0.00 | 0.00 | 83 | 1020.1 |
| 20260904035604 | 66 | 134 | 0.0 | 0.0 | 0.00 | 0.00 | 0.00 | 83 | 1020.1 |
| 20260904035104 | 66 | 134 | 0.0 | 2.0 | 0.00 | 0.00 | 0.00 | 83 | 1020.0 |
| 20260904034604 | 66 | 134 | 0.0 | 2.0 | 0.00 | 0.00 | 0.00 | 83 | 1020.0 |
| 20260904034104 | 66 | 134 | 0.0 | 2.0 | 0.00 | 0.00 | 0.00 | 83 | 1020.0 |
| 20260904033604 | 66 | 134 | 0.0 | 2.0 | 0.00 | 0.00 | 0.00 | 83 | 1019.9 |
| 20260904032604 | 66 | 134 | 0.0 | 2.0 | 0.00 | 0.00 | 0.00 | 82 | 1019.9 |
| 20260904032104 | 67 | 134 | 0.0 | 0.0 | 0.00 | 0.00 | 0.00 | 82 | 1019.9 |
| 20260904031604 | 67 | 134 | 0.0 | 2.0 | 0.00 | 0.00 | 0.00 | 81 | 1019.9 |
| 20260904031104 | 67 | 134 | 0.0 | 2.0 | 0.00 | 0.00 | 0.00 | 81 | 1019.9 |
| 20260904030103 | 67 | 134 | 0.0 | 0.0 | 0.00 | 0.00 | 0.00 | 81 | 1019.8 |
| 20260904025604 | 67 | 134 | 0.0 | 2.0 | 0.00 | 0.00 | 0.00 | 80 | 1019.8 |
| 20260904024604 | 68 | 134 | 0.0 | 0.0 | 0.00 | 0.00 | 0.00 | 80 | 1019.8 |
| 20260904024104 | 68 | 134 | 0.0 | 0.0 | 0.00 | 0.00 | 0.00 | 79 | 1019.8 |
| 20260904023604 | 68 | 134 | 0.0 | 0.0 | 0.00 | 0.00 | 0.00 | 79 | 1019.7 |
| 20260904023104 | 68 | 134 | 0.0 | 0.0 | 0.00 | 0.00 | 0.00 | 79 | 1019.7 |
| 20260904022104 | 68 | 134 | 2.0 | 2.0 | 0.00 | 0.00 | 0.00 | 79 | 1019.7 |
| 20260904021604 | 68 | 134 | 2.0 | 2.0 | 0.00 | 0.00 | 0.00 | 79 | 1019.7 |
| 20260904021103 | 68 | 134 | 1.0 | 2.0 | 0.00 | 0.00 | 0.00 | 79 | 1019.7 |
| 20260904020604 | 69 | 134 | 1.0 | 2.0 | 0.00 | 0.00 | 0.00 | 78 | 1019.8 |
| 20260904015603 | 69 | 134 | 0.0 | 2.0 | 0.00 | 0.00 | 0.00 | 78 | 1019.8 |
| 20260904015104 | 69 | 134 | 1.0 | 2.0 | 0.00 | 0.00 | 0.00 | 77 | 1019.9 |
| 20260904014604 | 70 | 134 | 1.0 | 2.0 | 0.00 | 0.00 | 0.00 | 77 | 1019.9 |
| 20260904013104 | 70 | 134 | 2.0 | 2.0 | 0.00 | 0.00 | 0.00 | 75 | 1019.8 |
| 20260904012604 | 71 | 134 | 2.0 | 3.0 | 0.00 | 0.00 | 0.00 | 74 | 1019.8 |
| 20260904012103 | 71 | 141 | 2.0 | 5.0 | 0.00 | 0.00 | 0.00 | 74 | 1019.9 |
| 20260904011604 | 70 | 136 | 1.0 | 5.0 | 0.00 | 0.00 | 0.00 | 75 | 1019.9 |
| 20260904011104 | 70 | 127 | 2.0 | 3.0 | 0.00 | 0.00 | 0.00 | 75 | 1019.9 |
| 20260904010604 | 70 | 126 | 2.0 | 3.0 | 0.00 | 0.00 | 0.00 | 76 | 1020.0 |
| 20260904010104 | 70 | 126 | 1.0 | 5.0 | 0.00 | 0.00 | 0.00 | 76 | 1020.0 |
| 20260904005604 | 70 | 139 | 1.0 | 3.0 | 0.00 | 0.00 | 0.00 | 77 | 1020.0 |
| 20260904005104 | 70 | 142 | 0.0 | 3.0 | 0.00 | 0.00 | 0.00 | 78 | 1020.1 |
| 20260904004603 | 70 | 161 | 0.0 | 2.0 | 0.00 | 0.00 | 0.00 | 78 | 1020.1 |
| 20260904004104 | 70 | 161 | 0.0 | 2.0 | 0.00 | 0.00 | 0.00 | 78 | 1020.1 |
| 20260904003604 | 70 | 161 | 0.0 | 1.0 | 0.00 | 0.00 | 0.00 | 78 | 1020.1 |
| 20260904003104 | 70 | 161 | 0.0 | 0.0 | 0.00 | 0.00 | 0.00 | 78 | 1020.1 |
| 20260904001604 | 70 | 161 | 0.0 | 2.0 | 0.00 | 0.00 | 0.00 | 77 | 1020.0 |
| 20260904001104 | 71 | 161 | 0.0 | 2.0 | 0.00 | 0.00 | 0.00 | 77 | 1020.0 |
| 20260904000604 | 71 | 161 | 0.0 | 1.0 | 0.00 | 0.00 | 0.00 | 77 | 1020.0 |
| 20260904000104 | 71 | 161 | 0.0 | 2.0 | 0.00 | 0.00 | 0.00 | 77 | 1020.0 |
| 20260903235604 | 71 | 161 | 0.0 | 0.0 | 0.00 | 0.00 | 0.00 | 77 | 1020.0 |
| 20260903235104 | 71 | 161 | 0.0 | 2.0 | 0.00 | 0.00 | 0.00 | 76 | 1020.0 |
| 20260903234604 | 71 | 161 | 0.0 | 1.0 | 0.00 | 0.00 | 0.00 | 76 | 1020.0 |
| 20260903234104 | 71 | 161 | 0.0 | 1.0 | 0.00 | 0.00 | 0.00 | 75 | 1020.0 |
| 20260903233604 | 72 | 161 | 0.0 | 2.0 | 0.00 | 0.00 | 0.00 | 75 | 1020.0 |
| 20260903233104 | 72 | 161 | 0.0 | 2.0 | 0.00 | 0.00 | 0.00 | 75 | 1020.0 |
| 20260903232604 | 72 | 161 | 0.0 | 2.0 | 0.00 | 0.00 | 0.00 | 75 | 1020.0 |
| 20260903232103 | 72 | 161 | 0.0 | 2.0 | 0.00 | 0.00 | 0.00 | 75 | 1019.9 |
| 20260903231604 | 72 | 161 | 0.0 | 0.0 | 0.00 | 0.00 | 0.00 | 75 | 1019.9 |
| 20260903231104 | 72 | 161 | 1.0 | 2.0 | 0.00 | 0.00 | 0.00 | 75 | 1019.9 |
| 20260903230604 | 72 | 161 | 1.0 | 2.0 | 0.00 | 0.00 | 0.00 | 75 | 1019.8 |
| 20260903230104 | 72 | 161 | 2.0 | 2.0 | 0.00 | 0.00 | 0.00 | 75 | 1019.8 |
| 20260903225604 | 72 | 161 | 2.0 | 3.0 | 0.00 | 0.00 | 0.00 | 75 | 1019.8 |
| 20260903225103 | 72 | 150 | 1.0 | 3.0 | 0.00 | 0.00 | 0.00 | 76 | 1019.9 |
| 20260903224604 | 72 | 139 | 1.0 | 3.0 | 0.00 | 0.00 | 0.00 | 76 | 1019.9 |
| 20260903223605 | 72 | 99 | 1.0 | 2.0 | 0.00 | 0.00 | 0.00 | 76 | 1019.8 |
| 20260903223104 | 73 | 99 | 2.0 | 3.0 | 0.00 | 0.00 | 0.00 | 75 | 1019.8 |
| 20260903222604 | 73 | 107 | 2.0 | 2.0 | 0.00 | 0.00 | 0.00 | 75 | 1019.8 |
| 20260903222104 | 73 | 107 | 1.0 | 3.0 | 0.00 | 0.00 | 0.00 | 75 | 1019.8 |
| 20260903221605 | 73 | 125 | 1.0 | 3.0 | 0.00 | 0.00 | 0.00 | 75 | 1019.8 |
| 20260903221104 | 73 | 142 | 1.0 | 3.0 | 0.00 | 0.00 | 0.00 | 74 | 1019.8 |
| 20260903220603 | 73 | 154 | 1.0 | 2.0 | 0.00 | 0.00 | 0.00 | 74 | 1019.8 |
| 20260903220104 | 73 | 154 | 1.0 | 2.0 | 0.00 | 0.00 | 0.00 | 73 | 1019.8 |
| 20260903215603 | 73 | 154 | 1.0 | 2.0 | 0.00 | 0.00 | 0.00 | 73 | 1019.8 |
| 20260903215104 | 74 | 154 | 1.0 | 2.0 | 0.00 | 0.00 | 0.00 | 73 | 1019.9 |
| 20260903214104 | 74 | 154 | 1.0 | 2.0 | 0.00 | 0.00 | 0.00 | 71 | 1019.9 |
| 20260903213604 | 74 | 154 | 1.0 | 3.0 | 0.00 | 0.00 | 0.00 | 71 | 1019.8 |
| 20260903213104 | 75 | 156 | 1.0 | 3.0 | 0.00 | 0.00 | 0.00 | 70 | 1019.8 |
| 20260903212604 | 75 | 130 | 1.0 | 2.0 | 0.00 | 0.00 | 0.00 | 70 | 1019.8 |
| 20260903211604 | 75 | 130 | 1.0 | 2.0 | 0.00 | 0.00 | 0.00 | 70 | 1019.8 |
| 20260903211104 | 75 | 126 | 1.0 | 2.0 | 0.00 | 0.00 | 0.00 | 69 | 1019.8 |
| 20260903210106 | 76 | 125 | 0.0 | 2.0 | 0.00 | 0.00 | 0.00 | 69 | 1019.7 |
| 20260903205605 | 76 | 125 | 0.0 | 2.0 | 0.00 | 0.00 | 0.00 | 69 | 1019.7 |
| 20260903205106 | 76 | 125 | 1.0 | 2.0 | 0.00 | 0.00 | 0.00 | 69 | 1019.7 |
| 20260903204604 | 76 | 125 | 1.0 | 2.0 | 0.00 | 0.00 | 0.00 | 69 | 1019.7 |
| 20260903204104 | 76 | 125 | 0.0 | 2.0 | 0.00 | 0.00 | 0.00 | 69 | 1019.7 |
| 20260903203604 | 76 | 125 | 0.0 | 3.0 | 0.00 | 0.00 | 0.00 | 68 | 1019.6 |
| 20260903202104 | 77 | 124 | 0.0 | 2.0 | 0.00 | 0.00 | 0.00 | 67 | 1019.6 |
| 20260903201604 | 77 | 124 | 0.0 | 2.0 | 0.00 | 0.00 | 0.00 | 66 | 1019.6 |
| 20260903200604 | 77 | 124 | 1.0 | 2.0 | 0.00 | 0.00 | 0.00 | 66 | 1019.6 |
| 20260903195604 | 77 | 124 | 2.0 | 3.0 | 0.00 | 0.00 | 0.00 | 65 | 1019.6 |
| 20260903195105 | 77 | 118 | 2.0 | 3.0 | 0.00 | 0.00 | 0.00 | 65 | 1019.5 |
| 20260903194605 | 77 | 119 | 2.0 | 3.0 | 0.00 | 0.00 | 0.00 | 65 | 1019.5 |
| 20260903194104 | 78 | 121 | 2.0 | 2.0 | 0.00 | 0.00 | 0.00 | 65 | 1019.5 |
| 20260903193605 | 78 | 121 | 2.0 | 5.0 | 0.00 | 0.00 | 0.00 | 64 | 1019.3 |
| 20260903193104 | 78 | 120 | 2.0 | 6.0 | 0.00 | 0.00 | 0.00 | 64 | 1019.3 |
| 20260903192604 | 78 | 116 | 2.0 | 3.0 | 0.00 | 0.00 | 0.00 | 64 | 1019.3 |
| 20260903192104 | 78 | 108 | 2.0 | 5.0 | 0.00 | 0.00 | 0.00 | 63 | 1019.2 |
| 20260903191604 | 79 | 119 | 2.0 | 3.0 | 0.00 | 0.00 | 0.00 | 62 | 1019.2 |
| 20260903191104 | 79 | 119 | 2.0 | 3.0 | 0.00 | 0.00 | 0.00 | 62 | 1019.2 |
| 20260903190604 | 79 | 119 | 2.0 | 3.0 | 0.00 | 0.00 | 0.00 | 61 | 1019.0 |
| 20260903190104 | 80 | 103 | 2.0 | 5.0 | 0.00 | 0.00 | 0.00 | 60 | 1019.0 |
| 20260903185604 | 80 | 102 | 2.0 | 3.0 | 0.00 | 0.00 | 0.00 | 59 | 1019.0 |
| 20260903185104 | 81 | 106 | 2.0 | 5.0 | 0.00 | 0.00 | 0.00 | 58 | 1018.8 |
| 20260903184604 | 81 | 104 | 2.0 | 2.0 | 0.00 | 0.00 | 0.00 | 58 | 1018.8 |
| 20260903184104 | 81 | 104 | 2.0 | 3.0 | 0.00 | 0.00 | 0.00 | 57 | 1018.8 |
| 20260903183605 | 82 | 104 | 2.0 | 6.0 | 0.00 | 0.00 | 0.00 | 56 | 1018.6 |
| 20260903183105 | 82 | 108 | 2.0 | 5.0 | 0.00 | 0.00 | 0.00 | 56 | 1018.6 |
| 20260903182104 | 83 | 103 | 2.0 | 3.0 | 0.00 | 0.00 | 0.00 | 55 | 1018.7 |
| 20260903181604 | 83 | 108 | 2.0 | 3.0 | 0.00 | 0.00 | 0.00 | 54 | 1018.7 |
| 20260903180105 | 85 | 166 | 2.0 | 5.0 | 0.00 | 0.00 | 0.00 | 52 | 1018.5 |
| 20260903175603 | 85 | 158 | 2.0 | 3.0 | 0.00 | 0.00 | 0.00 | 52 | 1018.5 |
| 20260903175104 | 85 | 164 | 2.0 | 5.0 | 0.00 | 0.00 | 0.00 | 51 | 1018.5 |
| 20260903174604 | 86 | 163 | 2.0 | 5.0 | 0.00 | 0.00 | 0.00 | 50 | 1018.5 |
| 20260903174103 | 86 | 161 | 1.0 | 3.0 | 0.00 | 0.00 | 0.00 | 49 | 1018.5 |
| 20260903173604 | 86 | 162 | 0.0 | 5.0 | 0.00 | 0.00 | 0.00 | 47 | 1018.4 |
| 20260903173103 | 87 | 352 | 0.0 | 2.0 | 0.00 | 0.00 | 0.00 | 42 | 1018.4 |
| 20260903172104 | 88 | 352 | 0.0 | 0.0 | 0.00 | 0.00 | 0.00 | 42 | 1018.4 |
| 20260903171604 | 88 | 352 | 0.0 | 0.0 | 0.00 | 0.00 | 0.00 | 40 | 1018.4 |
| 20260903170604 | 88 | 352 | 0.0 | 1.0 | 0.00 | 0.00 | 0.00 | 38 | 1018.3 |
| 20260903165603 | 88 | 352 | 0.0 | 1.0 | 0.00 | 0.00 | 0.00 | 38 | 1018.3 |
| 20260903165104 | 89 | 352 | 0.0 | 0.0 | 0.00 | 0.00 | 0.00 | 38 | 1018.2 |
| 20260903164604 | 89 | 352 | 0.0 | 2.0 | 0.00 | 0.00 | 0.00 | 39 | 1018.2 |
| 20260903164103 | 89 | 352 | 1.0 | 1.0 | 0.00 | 0.00 | 0.00 | 39 | 1018.2 |
| 20260903163104 | 90 | 352 | 1.0 | 3.0 | 0.00 | 0.00 | 0.00 | 37 | 1018.1 |
| 20260903162604 | 90 | 352 | 1.0 | 3.0 | 0.00 | 0.00 | 0.00 | 37 | 1018.1 |
| 20260903162104 | 90 | 353 | 2.0 | 3.0 | 0.00 | 0.00 | 0.00 | 36 | 1018.1 |
| 20260903161604 | 91 | 352 | 2.0 | 3.0 | 0.00 | 0.00 | 0.00 | 37 | 1018.1 |
| 20260903161105 | 91 | 355 | 2.0 | 5.0 | 0.00 | 0.00 | 0.00 | 36 | 1018.1 |
| 20260903160605 | 92 | 14 | 2.0 | 2.0 | 0.00 | 0.00 | 0.00 | 36 | 1018.2 |
| 20260903155604 | 93 | 5 | 2.0 | 5.0 | 0.00 | 0.00 | 0.00 | 35 | 1018.2 |
| 20260903154604 | 93 | 353 | 2.0 | 5.0 | 0.00 | 0.00 | 0.00 | 35 | 1018.3 |
| 20260903154104 | 93 | 353 | 1.0 | 5.0 | 0.00 | 0.00 | 0.00 | 35 | 1018.3 |
| 20260903153604 | 93 | 29 | 1.0 | 2.0 | 0.00 | 0.00 | 0.00 | 36 | 1018.4 |
| 20260903153104 | 92 | 34 | 2.0 | 2.0 | 0.00 | 0.00 | 0.00 | 36 | 1018.4 |
| 20260903152604 | 93 | 34 | 2.0 | 3.0 | 0.00 | 0.00 | 0.00 | 36 | 1018.4 |
| 20260903152104 | 92 | 321 | 2.0 | 3.0 | 0.00 | 0.00 | 0.00 | 36 | 1018.4 |
| 20260903151604 | 92 | 352 | 2.0 | 5.0 | 0.00 | 0.00 | 0.00 | 37 | 1018.4 |
| 20260903151105 | 92 | 172 | 2.0 | 3.0 | 0.00 | 0.00 | 0.00 | 37 | 1018.4 |
| 20260903150105 | 92 | 147 | 2.0 | 5.0 | 0.00 | 0.00 | 0.00 | 37 | 1018.6 |
| 20260903145610 | 92 | 344 | 2.0 | 5.0 | 0.00 | 0.00 | 0.00 | 36 | 1018.6 |
| 20260903145105 | 93 | 338 | 2.0 | 7.0 | 0.00 | 0.00 | 0.00 | 37 | 1018.7 |
| 20260903144604 | 92 | 8 | 2.0 | 7.0 | 0.00 | 0.00 | 0.00 | 36 | 1018.7 |
| 20260903144104 | 92 | 2 | 2.0 | 3.0 | 0.00 | 0.00 | 0.00 | 38 | 1018.7 |
| 20260903142104 | 92 | 10 | 2.0 | 5.0 | 0.00 | 0.00 | 0.00 | 39 | 1019.1 |
| 20260903141604 | 92 | 291 | 2.0 | 5.0 | 0.00 | 0.00 | 0.00 | 38 | 1019.1 |
| 20260903141105 | 92 | 340 | 2.0 | 3.0 | 0.00 | 0.00 | 0.00 | 38 | 1019.1 |
| 20260903140605 | 92 | 30 | 2.0 | 3.0 | 0.00 | 0.00 | 0.00 | 39 | 1019.3 |
| 20260903140104 | 92 | 7 | 2.0 | 5.0 | 0.00 | 0.00 | 0.00 | 39 | 1019.3 |
| 20260903135604 | 91 | 110 | 2.0 | 5.0 | 0.00 | 0.00 | 0.00 | 40 | 1019.3 |
| 20260903135104 | 91 | 112 | 2.0 | 7.0 | 0.00 | 0.00 | 0.00 | 39 | 1019.3 |
| 20260903134604 | 91 | 155 | 2.0 | 6.0 | 0.00 | 0.00 | 0.00 | 39 | 1019.3 |
| 20260903134104 | 91 | 187 | 2.0 | 5.0 | 0.00 | 0.00 | 0.00 | 39 | 1019.3 |
| 20260903133603 | 91 | 171 | 2.0 | 5.0 | 0.00 | 0.00 | 0.00 | 39 | 1019.4 |
| 20260903133104 | 91 | 119 | 2.0 | 5.0 | 0.00 | 0.00 | 0.00 | 40 | 1019.4 |
| 20260903132604 | 91 | 180 | 2.0 | 3.0 | 0.00 | 0.00 | 0.00 | 40 | 1019.4 |
| 20260903132104 | 91 | 345 | 2.0 | 5.0 | 0.00 | 0.00 | 0.00 | 39 | 1019.6 |
| 20260903131104 | 91 | 347 | 2.0 | 5.0 | 0.00 | 0.00 | 0.00 | 41 | 1019.6 |
| 20260903130604 | 91 | 341 | 2.0 | 6.0 | 0.00 | 0.00 | 0.00 | 41 | 1019.6 |
| 20260903130104 | 91 | 339 | 2.0 | 5.0 | 0.00 | 0.00 | 0.00 | 40 | 1019.6 |
| 20260903125605 | 91 | 131 | 2.0 | 5.0 | 0.00 | 0.00 | 0.00 | 40 | 1019.6 |
| 20260903125104 | 91 | 45 | 2.0 | 5.0 | 0.00 | 0.00 | 0.00 | 40 | 1019.6 |
| 20260903124105 | 90 | 85 | 2.0 | 5.0 | 0.00 | 0.00 | 0.00 | 42 | 1019.6 |
| 20260903123604 | 90 | 176 | 2.0 | 5.0 | 0.00 | 0.00 | 0.00 | 41 | 1019.7 |
| 20260903123104 | 90 | 11 | 2.0 | 5.0 | 0.00 | 0.00 | 0.00 | 42 | 1019.7 |
| 20260903122604 | 90 | 198 | 2.0 | 5.0 | 0.00 | 0.00 | 0.00 | 41 | 1019.7 |
| 20260903121104 | 89 | 23 | 2.0 | 5.0 | 0.00 | 0.00 | 0.00 | 42 | 1019.7 |
| 20260903120604 | 89 | 184 | 2.0 | 5.0 | 0.00 | 0.00 | 0.00 | 43 | 1019.8 |
| 20260903120104 | 89 | 243 | 3.0 | 6.0 | 0.00 | 0.00 | 0.00 | 43 | 1019.8 |
| 20260903115604 | 89 | 161 | 3.0 | 3.0 | 0.00 | 0.00 | 0.00 | 43 | 1019.8 |
| 20260903115104 | 89 | 1 | 2.0 | 7.0 | 0.00 | 0.00 | 0.00 | 42 | 1019.8 |
| 20260903114604 | 89 | 350 | 2.0 | 6.0 | 0.00 | 0.00 | 0.00 | 43 | 1019.8 |
| 20260903114104 | 89 | 108 | 2.0 | 6.0 | 0.00 | 0.00 | 0.00 | 44 | 1019.8 |
| 20260903112603 | 88 | 152 | 2.0 | 5.0 | 0.00 | 0.00 | 0.00 | 46 | 1020.1 |
| 20260903112104 | 88 | 149 | 2.0 | 6.0 | 0.00 | 0.00 | 0.00 | 46 | 1020.5 |
| 20260903111604 | 88 | 343 | 2.0 | 5.0 | 0.00 | 0.00 | 0.00 | 47 | 1020.5 |
| 20260903111103 | 87 | 349 | 2.0 | 6.0 | 0.00 | 0.00 | 0.00 | 48 | 1020.5 |
| 20260903110604 | 87 | 82 | 2.0 | 5.0 | 0.00 | 0.00 | 0.00 | 49 | 1020.5 |
| 20260903110105 | 87 | 101 | 2.0 | 5.0 | 0.00 | 0.00 | 0.00 | 48 | 1020.5 |
| 20260903105604 | 87 | 13 | 2.0 | 5.0 | 0.00 | 0.00 | 0.00 | 49 | 1020.5 |
| 20260903105104 | 87 | 351 | 2.0 | 5.0 | 0.00 | 0.00 | 0.00 | 50 | 1020.7 |
| 20260903104604 | 87 | 351 | 2.0 | 5.0 | 0.00 | 0.00 | 0.00 | 50 | 1020.7 |
| 20260903104105 | 86 | 87 | 2.0 | 3.0 | 0.00 | 0.00 | 0.00 | 52 | 1020.7 |
| 20260903103604 | 86 | 350 | 2.0 | 5.0 | 0.00 | 0.00 | 0.00 | 52 | 1020.8 |
| 20260903103105 | 86 | 184 | 2.0 | 5.0 | 0.00 | 0.00 | 0.00 | 54 | 1020.8 |
| 20260903102605 | 86 | 39 | 2.0 | 5.0 | 0.00 | 0.00 | 0.00 | 54 | 1020.8 |
| 20260903102105 | 85 | 2 | 2.0 | 3.0 | 0.00 | 0.00 | 0.00 | 56 | 1020.9 |
| 20260903101104 | 85 | 2 | 2.0 | 3.0 | 0.00 | 0.00 | 0.00 | 56 | 1020.9 |
| 20260903100605 | 85 | 143 | 2.0 | 5.0 | 0.00 | 0.00 | 0.00 | 57 | 1021.2 |
| 20260903100105 | 85 | 337 | 2.0 | 3.0 | 0.00 | 0.00 | 0.00 | 57 | 1021.2 |
| 20260903095604 | 84 | 347 | 2.0 | 5.0 | 0.00 | 0.00 | 0.00 | 57 | 1021.2 |
| 20260903094104 | 83 | 332 | 2.0 | 2.0 | 0.00 | 0.00 | 0.00 | 62 | 1021.3 |
| 20260903093605 | 83 | 332 | 2.0 | 2.0 | 0.00 | 0.00 | 0.00 | 62 | 1021.3 |
| 20260903093104 | 83 | 332 | 2.0 | 2.0 | 0.00 | 0.00 | 0.00 | 62 | 1021.3 |
| 20260903092604 | 82 | 215 | 0.0 | 0.0 | 0.00 | 0.00 | 0.00 | 64 | 1021.3 |
| 20260903092106 | 82 | 215 | 0.0 | 0.0 | 0.00 | 0.00 | 0.00 | 64 | 1021.5 |
| 20260903091605 | 82 | 215 | 0.0 | 6.0 | 0.00 | 0.00 | 0.00 | 64 | 1021.5 |
| 20260903091105 | 82 | 2 | 2.0 | 6.0 | 0.00 | 0.00 | 0.00 | 64 | 1021.5 |
| 20260903090604 | 82 | 347 | 2.0 | 5.0 | 0.00 | 0.00 | 0.00 | 65 | 1021.5 |
| 20260903090104 | 81 | 200 | 2.0 | 3.0 | 0.00 | 0.00 | 0.00 | 66 | 1021.5 |
| 20260903085604 | 81 | 355 | 2.0 | 5.0 | 0.00 | 0.00 | 0.00 | 65 | 1021.5 |
| 20260903084604 | 82 | 356 | 2.0 | 5.0 | 0.00 | 0.00 | 0.00 | 65 | 1021.5 |
| 20260903084105 | 81 | 249 | 2.0 | 5.0 | 0.00 | 0.00 | 0.00 | 65 | 1021.5 |
| 20260903083604 | 81 | 305 | 2.0 | 3.0 | 0.00 | 0.00 | 0.00 | 66 | 1021.4 |
| 20260903083104 | 80 | 256 | 2.0 | 5.0 | 0.00 | 0.00 | 0.00 | 67 | 1021.4 |
| 20260903082104 | 80 | 353 | 2.0 | 5.0 | 0.00 | 0.00 | 0.00 | 67 | 1021.2 |
| 20260903081604 | 79 | 345 | 2.0 | 5.0 | 0.00 | 0.00 | 0.00 | 67 | 1021.2 |
| 20260903080604 | 78 | 0 | 2.0 | 3.0 | 0.00 | 0.00 | 0.00 | 70 | 1021.2 |
| 20260903080104 | 78 | 351 | 2.0 | 3.0 | 0.00 | 0.00 | 0.00 | 70 | 1021.2 |
| 20260903075605 | 78 | 349 | 2.0 | 5.0 | 0.00 | 0.00 | 0.00 | 71 | 1021.2 |
| 20260903074604 | 77 | 18 | 2.0 | 5.0 | 0.00 | 0.00 | 0.00 | 72 | 1021.1 |
| 20260903073604 | 76 | 347 | 2.0 | 5.0 | 0.00 | 0.00 | 0.00 | 73 | 1021.1 |
| 20260903073104 | 76 | 347 | 2.0 | 5.0 | 0.00 | 0.00 | 0.00 | 73 | 1021.1 |
| 20260903071604 | 76 | 342 | 2.0 | 6.0 | 0.00 | 0.00 | 0.00 | 71 | 1021.0 |
| 20260903070604 | 77 | 343 | 1.0 | 3.0 | 0.00 | 0.00 | 0.00 | 72 | 1020.8 |
| 20260903070104 | 76 | 342 | 1.0 | 2.0 | 0.00 | 0.00 | 0.00 | 73 | 1020.8 |